User: anonymous   Login
Location: Unspecified
(0.0000°N, 0.0000°E)
Time: 12:53:38
(UTC+01:00)
Language:

H-2A R/B - Orbit

View from above orbital plane
View from above orbital plane
View from above satellite
View from above satellite

Ground track
Ground track

The orbit data is extracted from the following two-line orbital elements,

1 26899U 01038B   17019.81897361  .00000555  00000-0  17411-3 0  9999
2 26899  27.8658 125.7777 7125375  89.6204 344.1479  2.47440031132831
Epoch (UTC): 19 January 2017 19:39:19
Eccentricity: 0.7125375
inclination: 27.8658°
perigee height: 259 km
apogee height: 33164 km
right ascension of ascending node: 125.7777°
argument of perigee: 89.6204°
revolutions per day: 2.47440031
mean anomaly at epoch: 344.1479°
orbit number at epoch: 13283

The dashed part of the orbit path shows where the satellite is in the earth's shadow,  

DLR